Regional Weather Roundup
Issued by NWS Northern Indiana

Home | Current Version | Previous Version | Graphics & Text | Print | Product List | Glossary On
Versions: 1 2 3 4 5 6 7 8 9 10 11 12 13 14 15 16 17 18 19 20 21 22 23 24 25 26 27 28 29 30 31 32 33 34 35 36 37 38 39 40 41 42 43 44 45 46 47 48 49 50
496
ASUS43 KIWX 201000
RWRIWX

KIWX WEATHER ROUNDUP
NATIONAL WEATHER SERVICE NORTHERN INDIANA
500 AM EST TUE FEB 20 2018

NOTE: "FAIR" INDICATES FEW OR NO CLOUDS BELOW 12,000 FEET WITH NO
SIGNIFICANT WEATHER AND/OR OBSTRUCTIONS TO VISIBILITY.

* THESE STATIONS ARE NOT UNDER NWS QUALITY CONTROL. THEY ALSO MAY NOT
  REPORT WEATHER SUCH AS PRECIPITATION OR FOG.

INZ001>027-201100-
NORTHERN INDIANA

CITY           SKY/WX    TMP DP  RH WIND       PRES   REMARKS
SOUTH BEND     LGT RAIN  59  57  93 SW13G26   29.91R
GOSHEN         CLOUDY    60  57  89 S15       29.92R
MONTICELLO*    CLOUDY    62  58  87 S12       29.91F
WARSAW*        CLOUDY    61  57  88 S7        29.93S
AUBURN*        CLOUDY    59  55  88 S10G16    29.96F
FORT WAYNE     CLOUDY    61  57  87 S13       29.96F
PERU/GRISSOM   CLOUDY    62  62 100 S12       29.93F

$$
INZ028>050-201100-
CENTRAL INDIANA

CITY           SKY/WX    TMP DP  RH WIND       PRES   REMARKS
LAFAYETTE      MOCLDY    64  58  80 S14G26    29.91S
KOKOMO*        CLOUDY    61  57  87 S17       29.96F
MUNCIE*        FAIR      63  55  75 S13G25    30.00S
INDIANAPOLIS   MOCLDY    65  57  75 S14       29.99S

$$
MIZ043>046-050>051-056>058-064>065-071>073-077>080-201100-
SOUTHWEST LOWER MICHIGAN

CITY           SKY/WX    TMP DP  RH WIND       PRES   REMARKS
BATTLE CREEK   LGT RAIN  57  56  96 S14       29.90S
BENTON HARBOR  RAIN      60  57  89 S15       29.87R FOG
COLDWATER*     LGT RAIN  57  57 100 S7G21     29.91F
HILLSDALE*     LGT RAIN  54  52  94 S10       29.94S
HOLLAND        LGT RAIN  60  59  96 SW20      29.84S
GRAND RAPIDS   RAIN      57  32  38 S10       29.85S
KALAMAZOO      LGT RAIN  56  55  97 S9        29.90R FOG
THREE RIVERS*  LGT RAIN  53  53 100 S5        29.91S

$$
OHZ001>008-015>018-024>025-201100-
NORTHWEST OHIO

CITY           SKY/WX    TMP DP  RH WIND       PRES   REMARKS
DEFIANCE       CLOUDY    60  57  89 SW13      29.98R
FINDLAY        CLOUDY    62  54  74 S21       30.01R
TOLEDO EXPRESS LGT RAIN  62  57  83 SW12      29.98R
TOLEDO METCALF CLOUDY    62  55  77 SW17      29.99R
LIMA           CLOUDY    62  56  80 S17G28    30.02R

$$
AND FOR LAKE MICHIGAN COASTAL AND OPEN LAKE BUOY OBSERVATIONS

STATION/POSITION TEMP    WIND        PRES    VSBY  WAVE
                 AIR SEA DIR/SP/G                  HT/PER
                 (F)     (DEG/KT/KT) (MB)    (MI)  (FT/S)
CALUMET HARBOR    59     190/ 11/ 14 1009.8R
MICHIGAN CITY     59     190/ 18/ 21   N/A
BURNS HARBOR      58     190/ 14/ 19 1011.2S
SAINT JOSEPH      58     200/ 10/ 15 1012.2

$$
&&




USA.gov is the U.S. government's official web portal to all federal, state and local government web resources and services.